Regional Weather Roundup
Issued by NWS Mobile, AL

Home | Current Version | Previous Version | Text Only | Print | Product List | Glossary On
Versions: 1 2 3 4 5 6 7 8 9 10 11 12 13 14 15 16 17 18 19 20 21 22 23 24 25 26 27 28 29 30 31 32 33 34 35 36 37 38 39 40 41 42 43 44 45 46 47 48 49 50
000
ASUS44 KMOB 040413
RWRMOB
REGIONAL WEATHER ROUNDUP
NATIONAL WEATHER SERVICE MOBILE AL
1000 PM CST SAT DEC 03 2016

NOTE: "FAIR" INDICATES FEW OR NO CLOUDS BELOW 12,000 FEET WITH NO
      SIGNIFICANT WEATHER AND/OR OBSTRUCTIONS TO VISIBILITY.

  * THESE STATIONS ARE PART OF THE UNIVERSITY OF SOUTH ALABAMA
    MESONET AND ARE NOT UNDER NWS OR FAA QUALITY CONTROL.

ALZ061>064-040500-
COASTAL ALABAMA

CITY           SKY/WX    TMP DP  RH WIND       PRES   REMARKS
MOBILE REG APT MOCLDY    58  37  45 E13       30.05F
BROOKLEY FIELD MOCLDY    61  40  45 E14       30.07F
USA CAMPUS*      N/A     57  37  47 E5        30.05F
DOG RIVER*       N/A     59  41  51 SE6       30.82


CITY           SKY/WX    TMP DP  RH WIND       PRES   REMARKS
GULF SHORES    CLOUDY    60  40  47 E16       30.07F

$$

ALZ051>060-040500-
INTERIOR SOUTHWEST AND SOUTH CENTRAL ALABAMA

CITY           SKY/WX    TMP DP  RH WIND       PRES   REMARKS
GREENVILLE     CLOUDY    53  34  48 E8        30.09F
EVERGREEN      CLOUDY    55  33  43 E5        30.10F
ATMORE*          N/A     55  37  50 E13       30.09F
ANDALUSIA/OPP  CLOUDY    59  33  37 E13       30.09F
ANDALUSIA*       N/A     55  32  41 E9        30.08F
FLORALA APT    CLOUDY    56  35  45 E7        30.10F
FLORALA*         N/A     55  37  50 W2        30.83F

$$

FLZ001>006-040500-
WESTERN FLORIDA PANHANDLE

CITY           SKY/WX    TMP DP  RH WIND       PRES   REMARKS
PENSACOLA      CLOUDY    60  37  42 E12       30.08S
NAS PENSACOLA  CLOUDY    61  37  41 E14       30.08S
MILTON         LGT RAIN  58  35  42 E12G18    30.10S
WHTNG S FIELD  CLOUDY    61  37  41 E9        30.10S


CITY           SKY/WX    TMP DP  RH WIND       PRES   REMARKS
JAY*             N/A     57  34  41 SE12      30.10S
DUKE FIELD     CLOUDY    58  34  40 E13       30.06F
CRESTVIEW      CLOUDY    57  35  43 E10       30.09F
VALPARAISO     CLOUDY    59  35  41 E15       30.07F
DESTIN         CLOUDY    61  39  44 E10G16    30.10F

$$

MSZ076-079-040500-
INTERIOR SOUTHEAST MISSISSIPPI

CITY           SKY/WX    TMP DP  RH WIND       PRES   REMARKS
LEAKESVILLE*   NOT AVBL
AGRICOLA*      NOT AVBL

$$

MARINE OBSERVATIONS

STATION/POSITION TIME  TEMP    WIND        PRES    WAVE
                       AIR SEA DIR/SP/G            HT/PER
                 (UTC) (F)     (DEG/KT/KT) (MB)    (FT/S)
PASCAGOULA       0348   60      90/ 11/ 21 1016.4F
PETIT BOIS ISLND 0348   60      90/ 20/ 25 1017.3F
GRAND BAY        0230   60      80/ 12     1019.0S
KATRINA CUT      0330   60      80/ 21     1017.3F
CEDAR POINT      0330   59      80/ 16     1016.9F
E DAUPHIN ISLAND 0300   61      70/ 19/ 21 1018.0F
MIDDLE BAY LIGHT 0330   60      80/ 19     1017.3F
USCG MOBILE BAY  0348   60 61  100/ 14/ 16 1018.5F
STATE DOCKS      0342   59 65              1017.9F
MEAHER PARK      0330   59      70/  6     1017.3F
WEEKS BAY        0245   59                   N/A
FORT MORGAN      0348   61      90/ 15/ 21 1016.7F
12 S ORANGE BCH  0350   65 69   90/ 23/ 29 1017.2F   6/ 5
PENSACOLA BAY    0342   60 63   80/  9/ 14 1018.6R
64 S DAUPHIN ISL 0350   72 76  110/ 23/ 29 1014.8F   8/ 8
67 S FORT MORGAN 0230   71     100/ 25     1015.9F

$$

SELECTED LOCATIONS ACROSS THE REGION

CITY           SKY/WX    TMP DP  RH WIND       PRES   REMARKS
NEW ORLEANS    CLOUDY    63  59  87 E17       29.95S
GULFPORT       CLOUDY    61  40  45 E13       30.01F
PASCAGOULA AP  MOCLDY    60  36  40 E10       30.03F
PASCAGOULA*    NOT AVBL
HATTIESBURG    CLOUDY    54  38  54 E7        30.03F
LAUREL         CLOUDY    54  37  54 E8        30.04S
MERIDIAN       LGT RAIN  47  41  80 E7        30.07F
JACKSON        LGT RAIN  48  45  89 E7        30.01F
MONTGOMERY     CLOUDY    52  37  56 E10       30.13F
TROY           CLOUDY    53  35  50 E6        30.15F
ASHFORD*         N/A     55  32  41 E9        30.08F
DOTHAN         MOCLDY    56  37  49 E7        30.17R
PANAMA CITY    MOCLDY    57  36  45 NE8       30.10F

$$




USA.gov is the U.S. government's official web portal to all federal, state and local government web resources and services.